Regional Weather Roundup
Issued by NWS Sterling, VA

Home | Current Version | Previous Version | Graphics & Text | Print | Product List | Glossary On
Versions: 1 2 3 4 5 6 7 8 9 10 11 12 13 14 15 16 17 18 19 20 21 22 23 24 25 26 27 28 29 30 31 32 33 34 35 36 37 38 39 40 41 42 43 44 45 46 47 48 49 50
000
ASUS41 KLWX 231510
RWRLWX

REGIONAL WEATHER ROUNDUP
NATIONAL WEATHER SERVICE BALTIMORE MD/WASHINGTON DC
1100 AM EDT SAT MAY 23 2015

Note: "FAIR" indicates few or no clouds below 12,000 feet
with no significant weather and/or obstructions to visibility.
 TC=TEMPERATURE CELSIUS

 * =Non NWS site. Station does not report precipitation (e.g. rain,
    snow, etc.), thunder, or fog.

DCZ001-MDZ009-015-VAZ040>042-051-053>054-231600-
WASHINGTON METRO

CITY           SKY/WX    TMP DP  RH WIND       PRES   REMARKS
WASHINGTON NAT MOSUNNY   66  28  24 N5        30.48S
DULLES         MOSUNNY   62  27  26 CALM      30.48S
ANDREWS AFB    SUNNY     62  30  29 VRB2      30.46S
FT BELVOIR     SUNNY     64  28  25 VRB2      30.47F
QUANTICO       SUNNY     63  31  30 E7        30.49S
LEESBURG*      SUNNY     63  32  31 CALM      30.48S
MANASSAS*      SUNNY     63  30  29 N5        30.48S
GAITHERSBURG*  SUNNY     61  30  31 NW5       30.50F

$$

MDZ006>007-011-014-231600-
BALTIMORE METRO

CITY           SKY/WX    TMP DP  RH WIND       PRES   REMARKS
BWI AIRPORT    MOSUNNY   62  26  25 CALM      30.46S
MD SCIENCE CTR   N/A     62  24  23 MISG      30.47S
MARTIN STATE   MOSUNNY   61  30  31 W6        30.49R
ANNAPOLIS      SUNNY     61  23  23 VRB3      30.47S
FORT MEADE*    SUNNY     61  28  29 CALM      30.49S

$$

MDZ012-015-019>023-231600-
MARYLAND EASTERN SHORE

CITY           SKY/WX    TMP DP  RH WIND       PRES   REMARKS
OCEAN CITY     SUNNY     61  41  47 E9        30.46R
SALISBURY      SUNNY     63  32  31 N7        30.46R
EASTON*        MOSUNNY   63  32  31 N3        30.50R

$$

MDZ017>025-231600-
SOUTHERN MARYLAND

CITY           SKY/WX    TMP DP  RH WIND       PRES   REMARKS
PATUXENT RIVER MOSUNNY   63  32  31 N9        30.47S
ST INIGOES     SUNNY     64  35  34 NE8       30.46S
LEONARDTOWN*   NOT AVBL

$$

MDZ003>005-231600-
NORTH CENTRAL MARYLAND

CITY           SKY/WX    TMP DP  RH WIND       PRES   REMARKS
FREDERICK*     SUNNY     63  32  31 S5        30.49S
HAGERSTOWN APT SUNNY     62  23  22 N6        30.46S
WESTMINSTER*   SUNNY     57  19  23 CALM      30.46S

$$

MDZ501>502-231600-
WESTERN MARYLAND

CITY           SKY/WX    TMP DP  RH WIND       PRES   REMARKS
OAKLAND*       NOT AVBL
CUMBERLAND*    NOT AVBL

$$

VAZ025>031-231600-
SHENANDOAH VALLEY

CITY           SKY/WX    TMP DP  RH WIND       PRES   REMARKS
WINCHESTER*    MOSUNNY   63  14  15 CALM      30.46S
FRONT ROYAL*   FAIR      61  36  39 CALM      30.46S
LURAY*         FAIR      64  36  34 NE5       30.46F
NEW MARKET*    FAIR      63  31  30 E5        30.45F
STAUNTON*      MOSUNNY   64  31  28 NE5       30.48F
WAYNESBORO*    FAIR      62  32  32 N6        30.46F

$$

WVZ021-048>050-054>055-231600-
EASTERN WEST VIRGINIA PANHANDLE

CITY           SKY/WX    TMP DP  RH WIND       PRES   REMARKS
MARTINSBURG    SUNNY     62  28  27 E5        30.47S
PETERSBURG*    MOSUNNY   64  31  29 CALM      30.46F HAZE

$$

VAZ036>039-050-231600-
CENTRAL FOOTHILLS

CITY           SKY/WX    TMP DP  RH WIND       PRES   REMARKS
CHARLOTTESVILL SUNNY     65  33  30 E6        30.46F
CULPEPER*      SUNNY     63  32  31 N3        30.48F
ORANGE*        SUNNY     64  34  32 CALM      30.49S
GORDONSVILLE*  FAIR      63  33  32 NE3       30.47S
WARRENTON*     FAIR      65  34  31 NE3       30.47S

$$

VAZ055>057-231600-
NORTH AND CENTRAL PIEDMONT

CITY           SKY/WX    TMP DP  RH WIND       PRES   REMARKS
FREDERICKSBRG* SUNNY     65  34  31 E3        30.47S
STAFFORD*      SUNNY     63  26  24 CALM      30.51F

$$

NCZ024-NYZ072-PAZ021-071-VAZ022-071-231600-
OTHER REGIONAL OBSERVATIONS

CITY           SKY/WX    TMP DP  RH WIND       PRES   REMARKS
NEW YORK CITY  SUNNY     56  24  29 NW3       30.45R
PHILADELPHIA   MOSUNNY   58  22  24 NW7       30.46S
PITTSBURGH     MOSUNNY   59  27  29 VRB3      30.44F
ROANOKE        PTSUNNY   65  47  52 SE10      30.49R
RICHMOND       MOSUNNY   67  34  29 E8        30.47S
RALEIGH        MOSUNNY   69  46  43 E6        30.46R

$$

ANZ530>537-231600-
MARINE OBSERVATIONS

STATION/POSITION TIME  TEMP    WIND        PRES
                       AIR SEA DIR/SP/G
                 (UTC) (F)     (DEG/KT/KT) (MB)
THOMAS PT LIGHT  1500   59 65   60/  8/  9 1032.6R
BALT KEY BRIDGE  1400   57     330/  9/ 12 1031.3R
LEWISETTA        1400   61 67              1031.7R
SOLOMONS ISLAND  1400      67                N/A
PINEY POINT      1400           30/  6/  8   N/A

$$



USA.gov is the U.S. government's official web portal to all federal, state and local government web resources and services.